(413919) = 2006 WP126

Discovered at Catalina on 2006-11-22 by CSS.

Orbit

Orbit type: Main Belt

Note: WebGL enabled browser required.

epoch2024-03-31.0
epoch JD2460400.5
perihelion date2022-09-19.29333
perihelion JD2459841.79333
argument of perihelion (°)220.81266
ascending node (°)128.65537
inclination (°)15.33615
eccentricity0.2925006
perihelion distance (AU)1.8050643
Tisserand w.r.t. Jupiter3.3
ΔV w.r.t. Earth (km/sec)9.6
semimajor axis (AU)2.5513297
mean anomaly (°)135.12566
mean daily motion (°/day)0.24185440
aphelion distance (AU)3.298
period (years)4.08
P-vector [x]0.96497818
P-vector [y]-0.11227862
P-vector [z]-0.23708778
Q-vector [x]0.16173770
Q-vector [y]0.96620426
Q-vector [z]0.20072429
absolute magnitude17.04
phase slope0.15
uncertainty0
referenceMPEC 2024-D64
observations used859
oppositions10
arc length (days)6311
first opposition used2006
last opposition used2024
residual rms (arc-secs)0.61
perturbers coarse indicatorM-v
perturbers precise indicator003Ek
first observation date used2006-11-08.0
last observation date used2024-02-18.0
computer nameMPCLINUX
Minimum Orbit Intersection Distances (in AU)
for orbit epoch: 2460400.5, reference: E2024-D64
Mercury1.42146
Venus1.08469
Earth0.82304
Mars0.45715
Jupiter2.17324
Saturn6.05552
Uranus15.1872
Neptune27.194

Observations

862 total observations over interval: 2006 11 08.46084 – 2024 02 18.357428
These data are available for download (format description).

Date (UT) J2000 RA J2000 Dec Magn Location Ref
2006 11 08.46084 04 43 40.58 -03 58 40.8 19.8 R 644 – Palomar Mountain/NEAT MPS 309451
2006 11 08.47189 04 43 39.99 -03 58 42.3 19.2 R 644 – Palomar Mountain/NEAT MPS 309451
2006 11 08.48882 04 43 39.11 -03 58 44.6 19.1 R 644 – Palomar Mountain/NEAT MPS 309451
2006 11 16.34718 04 36 25.84 -04 09 00.5 19.5 V 703 – Catalina Sky Survey MPS 309451
2006 11 16.35995 04 36 25.05 -04 09 01.1 19.6 V 703 – Catalina Sky Survey MPS 309451
2006 11 16.37268 04 36 24.33 -04 09 02.0 19.5 V 703 – Catalina Sky Survey MPS 309451
2006 11 16.38538 04 36 23.50 -04 09 01.6 19.8 V 703 – Catalina Sky Survey MPS 309451
2006 11 22.34926 04 30 17.49 -04 04 25.0 19.5 V 703 – Catalina Sky Survey MPS 190856
2006 11 22.35693 04 30 17.06 -04 04 23.6 19.9 V 703 – Catalina Sky Survey MPS 190856
2006 11 22.36461 04 30 16.56 -04 04 23.1 19.5 V 703 – Catalina Sky Survey MPS 190856
2006 11 22.40863 04 30 13.71 -04 04 18.4 19.8 V 703 – Catalina Sky Survey MPS 190856
2006 11 22.41486 04 30 13.24 -04 04 20.2 18.8 V 703 – Catalina Sky Survey MPS 190856
2006 11 22.42102 04 30 13.03 -04 04 21.1 18.7 V 703 – Catalina Sky Survey MPS 190856
2006 11 22.42719 04 30 12.49 -04 04 16.7 19.6 V 703 – Catalina Sky Survey MPS 190856
2006 11 23.25678 04 29 20.68 -04 02 42.1 19.7 V 703 – Catalina Sky Survey MPS 190856
2006 11 23.26468 04 29 20.18 -04 02 42.3 19.3 V 703 – Catalina Sky Survey MPS 190856
2006 11 23.27255 04 29 19.68 -04 02 40.5 19.8 V 703 – Catalina Sky Survey MPS 190856
2006 11 23.28043 04 29 19.06 -04 02 40.1 19.7 V 703 – Catalina Sky Survey MPS 190856
2006 11 24.20457 04 28 20.92 -04 00 40.7 19.2 V 703 – Catalina Sky Survey MPS 190856
2006 11 24.20936 04 28 20.64 -04 00 39.2 19.4 V 703 – Catalina Sky Survey MPS 190856
2006 11 24.21414 04 28 20.46 -04 00 38.4 19.0 V 703 – Catalina Sky Survey MPS 190856
2006 11 24.21892 04 28 20.06 -04 00 38.8 19.6 V 703 – Catalina Sky Survey MPS 190856
2006 12 12.27206 04 10 28.65 -02 29 47.7 19.7 R 644 – Palomar Mountain/NEAT MPS 310241
2006 12 12.29556 04 10 27.38 -02 29 36.9 19.3 R 644 – Palomar Mountain/NEAT MPS 310241
2006 12 12.32078 04 10 26.01 -02 29 25.9 19.4 R 644 – Palomar Mountain/NEAT MPS 310241
2010 08 01.301538 02 51 05.53 +00 19 59.5   C51 – WISE MPS 341910
2010 08 01.433843 02 51 20.44 +00 19 48.8   C51 – WISE MPS 341910
2010 08 01.698449 02 51 50.10 +00 19 25.0   C51 – WISE MPS 341910
2010 08 01.830753 02 52 04.91 +00 19 13.6   C51 – WISE MPS 341910
2010 08 01.963057 02 52 19.67 +00 19 00.5   C51 – WISE MPS 341910
2010 08 02.029273 02 52 27.12 +00 18 55.5   C51 – WISE MPS 341910
2010 08 02.095361 02 52 34.47 +00 18 48.9   C51 – WISE MPS 341910
2010 08 02.161576 02 52 41.87 +00 18 43.2   C51 – WISE MPS 341910
2010 08 02.227664 02 52 49.26 +00 18 36.7   C51 – WISE MPS 341910
2010 08 02.359969 02 53 04.01 +00 18 24.3   C51 – WISE MPS 341910
2010 08 02.426057 02 53 11.38 +00 18 17.4   C51 – WISE MPS 341910
2010 08 02.426184 02 53 11.40 +00 18 18.2   C51 – WISE MPS 341910
2010 08 02.492272 02 53 18.73 +00 18 10.9   C51 – WISE MPS 343743
2010 08 02.558361 02 53 26.10 +00 18 04.5   C51 – WISE MPS 343743
2010 08 02.558488 02 53 26.10 +00 18 05.0   C51 – WISE MPS 343743
2010 08 02.690664 02 53 40.81 +00 17 51.6   C51 – WISE MPS 343743
2010 08 02.822968 02 53 55.48 +00 17 38.8   C51 – WISE MPS 343743
2010 08 05.53514 02 58 52.89 +00 12 23.6   C51 – WISE MPS 344935
2010 08 05.667440 02 59 07.21 +00 12 06.5   C51 – WISE MPS 344935
2010 08 05.799744 02 59 21.50 +00 11 48.5   C51 – WISE MPS 344935
2010 08 05.932047 02 59 35.748 +00 11 30.77   C51 – WISE MPS 904350
2010 08 06.064352 02 59 50.04 +00 11 12.9   C51 – WISE MPS 344935
2010 08 06.196655 03 00 04.29 +00 10 55.1   C51 – WISE MPS 344935
2010 08 06.262743 03 00 11.45 +00 10 46.2   C51 – WISE MPS 344935
2010 08 06.328959 03 00 18.51 +00 10 36.7   C51 – WISE MPS 344935
2010 08 06.395047 03 00 25.63 +00 10 27.4   C51 – WISE MPS 344935
2010 08 06.46126 03 00 32.72 +00 10 18.0   C51 – WISE MPS 344935
2010 08 06.52735 03 00 39.82 +00 10 08.4   C51 – WISE MPS 344935
2010 08 06.65966 03 00 53.99 +00 09 49.3   C51 – WISE MPS 344935
2010 08 06.72587 03 01 01.11 +00 09 41.0   C51 – WISE MPS 344935
2010 08 06.79196 03 01 08.15 +00 09 30.7   C51 – WISE MPS 344935
2010 08 06.92426 03 01 22.29 +00 09 11.5   C51 – WISE MPS 344935
2010 08 07.05657 03 01 36.41 +00 08 52.0   C51 – WISE MPS 344935
2010 08 07.32118 03 02 04.63 +00 08 12.7   C51 – WISE MPS 344935
2010 10 12.37647 04 00 20.98 -07 41 33.7 19.7   704 – Lincoln Laboratory ETS, New Mexico MPS 351325
2010 10 12.39043 04 00 20.77 -07 41 41.4 20.3   704 – Lincoln Laboratory ETS, New Mexico MPS 351325
2010 10 12.40446 04 00 20.51 -07 41 47.7 19.9   704 – Lincoln Laboratory ETS, New Mexico MPS 351325
2010 10 12.41844 04 00 20.22 -07 41 54.5 20.2   704 – Lincoln Laboratory ETS, New Mexico MPS 351325
2010 10 12.43241 04 00 19.89 -07 42 02.1 19.9   704 – Lincoln Laboratory ETS, New Mexico MPS 351325
2010 10 13.41296 04 00 02.66 -07 50 11.1 19.2 V 703 – Catalina Sky Survey MPS 351325
2010 10 13.41950 04 00 02.55 -07 50 16.2 19.2 V 703 – Catalina Sky Survey MPS 351325
2010 10 13.42603 04 00 02.41 -07 50 19.7 19.5 V 703 – Catalina Sky Survey MPS 351325
2010 10 13.43255 04 00 02.23 -07 50 21.8 19.3 V 703 – Catalina Sky Survey MPS 351325
2010 11 01.36411 03 48 18.21 -09 47 30.6 19.7 V 703 – Catalina Sky Survey MPS 353843
2010 11 01.37294 03 48 17.82 -09 47 31.4 18.9 V 703 – Catalina Sky Survey MPS 353843
2010 11 01.38178 03 48 17.20 -09 47 33.3 19.2 V 703 – Catalina Sky Survey MPS 353843
2010 11 01.39054 03 48 16.88 -09 47 36.1 19.5 V 703 – Catalina Sky Survey MPS 353843
2010 11 08.34162 03 41 51.03 -10 03 06.7 19.0   704 – Lincoln Laboratory ETS, New Mexico MPS 355449
2010 11 08.35470 03 41 50.24 -10 03 08.3 19.7   704 – Lincoln Laboratory ETS, New Mexico MPS 355449
2010 11 08.36780 03 41 49.39 -10 03 09.4 19.5   704 – Lincoln Laboratory ETS, New Mexico MPS 355449
2010 11 08.38107 03 41 48.66 -10 03 08.8 19.5   704 – Lincoln Laboratory ETS, New Mexico MPS 355449
2010 11 12.26985 03 38 00.96 -10 03 46.5 19.9 V 703 – Catalina Sky Survey MPS 357473
2010 11 12.27575 03 38 00.52 -10 03 45.1 19.0 V 703 – Catalina Sky Survey MPS 357473
2010 11 12.28169 03 38 00.20 -10 03 45.6 19.3 V 703 – Catalina Sky Survey MPS 357473
2010 11 12.28765 03 37 59.80 -10 03 45.0 19.1 V 703 – Catalina Sky Survey MPS 357473
2012 02 15.35671 10 17 10.653 +18 42 44.02 21.7 w F51 – Pan-STARRS 1, Haleakala MPS 411576
2012 02 15.37058 10 17 09.921 +18 42 51.11 21.5 w F51 – Pan-STARRS 1, Haleakala MPS 411576
2012 02 15.38444 10 17 09.176 +18 42 57.84 21.5 w F51 – Pan-STARRS 1, Haleakala MPS 411576
2012 02 15.39847 10 17 08.432 +18 43 04.95 21.7 w F51 – Pan-STARRS 1, Haleakala MPS 411576
2012 03 22.20510 09 49 22.29 +22 24 00.5 22.3 V G96 – Mt. Lemmon Survey MPS 417244
2012 03 22.21271 09 49 22.04 +22 24 02.4 22.2 V G96 – Mt. Lemmon Survey MPS 417244
2012 03 22.22022 09 49 21.79 +22 24 03.9 22.1 V G96 – Mt. Lemmon Survey MPS 417244
2012 03 22.22781 09 49 21.50 +22 24 05.3 22.8 V G96 – Mt. Lemmon Survey MPS 417244
2014 08 22.57013 02 33 22.552 -05 58 24.15 20.0 w F51 – Pan-STARRS 1, Haleakala MPS 528115
2014 08 22.58280 02 33 23.422 -05 58 30.98 19.9 w F51 – Pan-STARRS 1, Haleakala MPS 528115
2014 08 22.60816 02 33 25.146 -05 58 44.78 19.9 w F51 – Pan-STARRS 1, Haleakala MPS 528115
2014 10 12.54817 02 47 46.786 -15 29 19.53 19.2 i F51 – Pan-STARRS 1, Haleakala MPS 538910
2014 10 12.56068 02 47 46.271 -15 29 25.98 19.2 i F51 – Pan-STARRS 1, Haleakala MPS 538910
2014 10 12.57320 02 47 45.766 -15 29 32.40 18.9 i F51 – Pan-STARRS 1, Haleakala MPS 538910
2014 10 12.58572 02 47 45.260 -15 29 38.77 18.9 i F51 – Pan-STARRS 1, Haleakala MPS 538910
2014 10 17.30103 02 44 33.80 -16 06 06.3 19.1 V 703 – Catalina Sky Survey MPS 538910
2014 10 17.30602 02 44 33.50 -16 06 08.8 19.2 V 703 – Catalina Sky Survey MPS 538910
2014 10 17.31102 02 44 33.40 -16 06 11.1 18.9 V 703 – Catalina Sky Survey MPS 538910
2014 10 17.31602 02 44 33.09 -16 06 12.9 19.1 V 703 – Catalina Sky Survey MPS 538910
2014 10 23.26027 02 39 54.81 -16 39 37.1 19.1 r G45 – Space Surveillance Telescope, Atom Site MPS 558646
2014 10 23.27166 02 39 54.23 -16 39 40.1 18.8 r G45 – Space Surveillance Telescope, Atom Site MPS 558646
2014 10 23.29993 02 39 52.74 -16 39 47.4 19.3 r G45 – Space Surveillance Telescope, Atom Site MPS 558646
2014 10 23.30000 02 39 52.67 -16 39 47.2 19.1 r G45 – Space Surveillance Telescope, Atom Site MPS 558646
2014 10 23.31111 02 39 52.14 -16 39 50.0 19.3 r G45 – Space Surveillance Telescope, Atom Site MPS 558646
